When you browse on this site, cookies collect data to enhance your experience and personalize the content and advertising you see.
Visit our Privacy Policy to learn more. By continuing to use the site, you agree to this use of cookies and data.
  • In Spain
  • List of Countries
  • For 7 days
  • Water Temperature
  • Weather Map
  • Weather Widgets
  • user-avatar
    Login

    Hourly Weather Salamanca

    Today, 4 April, Saturday

    Time Temperature Precipitation Wind Pressure Humidity
    00:00 +15°C° 0 mm 0 mps 712 mmHg 68%
    01:00 +15°C° 0 mm 0 mps 712 mmHg 68%
    02:00 +15°C° 0 mm 0 mps 712 mmHg 67%
    03:00 +14°C° 0 mm 0 mps 711 mmHg 66%
    04:00 +14°C° 0 mm 0 mps 711 mmHg 65%
    05:00 +16°C° 0 mm 0 mps 712 mmHg 59%
    06:00 +18°C° 0 mm 0 mps 713 mmHg 52%
    07:00 +20°C° 0 mm 0 mps 713 mmHg 46%
    08:00 +24°C° 0 mm 1 mps 714 mmHg 43%
    09:00 +26°C° 0 mm 2 mps 714 mmHg 39%
    10:00 +28°C° 0 mm 3 mps 714 mmHg 35%
    11:00 +29°C° 0 mm 3 mps 714 mmHg 36%
    12:00 +29°C° 0 mm 3 mps 714 mmHg 36%
    13:00 +30°C° 0 mm 4 mps 714 mmHg 36%
    14:00 +29°C° 0 mm 3 mps 714 mmHg 40%
    15:00 +28°C° 0 mm 3 mps 714 mmHg 45%
    16:00 +27°C° 0 mm 3 mps 713 mmHg 49%
    17:00 +24°C° 0 mm 2 mps 713 mmHg 60%
    18:00 +22°C° 0 mm 1 mps 714 mmHg 70%
    19:00 +17°C° 0 mm 0 mps 714 mmHg 81%
    20:00 +17°C° 0 mm 0 mps 714 mmHg 81%
    21:00 +16°C° 0 mm 0 mps 714 mmHg 82%
    22:00 +16°C° 0 mm 0 mps 714 mmHg 82%
    23:00 +16°C° 0 mm 0 mps 714 mmHg 81%

    Tomorrow, 5 April, Sunday

    Time Temperature Precipitation Wind Pressure Humidity
    00:00 +15°C° 0 mm 0 mps 714 mmHg 81%
    01:00 +15°C° 0 mm 0 mps 713 mmHg 80%
    02:00 +15°C° 0 mm 0 mps 714 mmHg 82%
    03:00 +14°C° 0 mm 0 mps 714 mmHg 83%
    04:00 +14°C° 0 mm 0 mps 714 mmHg 84%
    05:00 +16°C° 0 mm 0 mps 715 mmHg 78%
    06:00 +18°C° 0 mm 0 mps 715 mmHg 72%
    07:00 +20°C° 0 mm 0 mps 716 mmHg 66%
    08:00 +23°C° 0 mm 1 mps 716 mmHg 59%
    09:00 +25°C° 0 mm 2 mps 717 mmHg 51%
    10:00 +27°C° 0 mm 2 mps 717 mmHg 43%
    11:00 +28°C° 0 mm 3 mps 717 mmHg 41%
    12:00 +29°C° 0 mm 3 mps 717 mmHg 39%
    13:00 +29°C° 0 mm 4 mps 717 mmHg 37%
    14:00 +29°C° 0 mm 3 mps 717 mmHg 39%
    15:00 +28°C° 0 mm 3 mps 717 mmHg 41%
    16:00 +27°C° 0 mm 3 mps 716 mmHg 42%
    17:00 +24°C° 0 mm 2 mps 717 mmHg 54%
    18:00 +21°C° 0 mm 1 mps 717 mmHg 65%
    19:00 +16°C° 0 mm 0 mps 717 mmHg 76%
    20:00 +16°C° 0 mm 0 mps 717 mmHg 76%
    21:00 +16°C° 0 mm 0 mps 717 mmHg 75%
    22:00 +15°C° 0 mm 0 mps 717 mmHg 74%
    23:00 +15°C° 0 mm 0 mps 717 mmHg 74%

    Day after tomorrow, 6 April, Monday

    Time Temperature Precipitation Wind Pressure Humidity
    00:00 +15°C° 0 mm 0 mps 717 mmHg 73%
    01:00 +15°C° 0 mm 0 mps 717 mmHg 72%
    02:00 +15°C° 0 mm 0 mps 717 mmHg 72%
    03:00 +15°C° 0 mm 0 mps 717 mmHg 72%
    04:00 +15°C° 0 mm 0 mps 717 mmHg 72%
    05:00 +18°C° 0 mm 0 mps 717 mmHg 63%
    06:00 +20°C° 0 mm 0 mps 718 mmHg 55%
    07:00 +22°C° 0 mm 0 mps 718 mmHg 46%
    08:00 +26°C° 0 mm 1 mps 718 mmHg 41%
    09:00 +28°C° 0 mm 2 mps 719 mmHg 36%
    10:00 +30°C° 0 mm 3 mps 719 mmHg 31%
    11:00 +31°C° 0 mm 3 mps 719 mmHg 30%
    12:00 +31°C° 0 mm 3 mps 718 mmHg 29%
    13:00 +33°C° 0 mm 4 mps 718 mmHg 28%
    14:00 +31°C° 0 mm 3 mps 718 mmHg 29%
    15:00 +30°C° 0 mm 3 mps 718 mmHg 31%
    16:00 +30°C° 0 mm 3 mps 717 mmHg 32%
    17:00 +26°C° 0 mm 2 mps 717 mmHg 44%
    18:00 +23°C° 0 mm 1 mps 717 mmHg 56%
    19:00 +17°C° 0 mm 0 mps 716 mmHg 68%
    20:00 +17°C° 0 mm 0 mps 716 mmHg 68%
    21:00 +17°C° 0 mm 0 mps 716 mmHg 68%
    22:00 +17°C° 0 mm 0 mps 716 mmHg 68%
    23:00 +17°C° 0 mm 0 mps 716 mmHg 68%

    7 April, Tuesday

    Time Temperature Precipitation Wind Pressure Humidity
    00:00 +17°C° 0 mm 0 mps 716 mmHg 67%
    01:00 +16°C° 0 mm 0 mps 716 mmHg 67%
    02:00 +16°C° 0 mm 0 mps 715 mmHg 67%
    03:00 +16°C° 0 mm 0 mps 715 mmHg 67%
    04:00 +16°C° 0 mm 0 mps 715 mmHg 67%
    05:00 +18°C° 0 mm 0 mps 715 mmHg 58%
    06:00 +20°C° 0 mm 0 mps 716 mmHg 50%
    07:00 +23°C° 0 mm 0 mps 717 mmHg 42%
    08:00 +27°C° 0 mm 1 mps 717 mmHg 36%
    09:00 +29°C° 0 mm 2 mps 717 mmHg 31%
    10:00 +33°C° 0 mm 3 mps 717 mmHg 26%
    11:00 +33°C° 0 mm 3 mps 717 mmHg 25%
    12:00 +34°C° 0 mm 3 mps 717 mmHg 24%
    13:00 +34°C° 0 mm 4 mps 717 mmHg 23%
    14:00 +33°C° 0 mm 3 mps 717 mmHg 25%
    15:00 +31°C° 0 mm 3 mps 716 mmHg 28%
    16:00 +31°C° 0 mm 3 mps 716 mmHg 30%
    17:00 +27°C° 0 mm 2 mps 716 mmHg 42%
    18:00 +23°C° 0 mm 1 mps 716 mmHg 55%
    19:00 +18°C° 0 mm 0 mps 715 mmHg 68%
    20:00 +18°C° 0 mm 0 mps 715 mmHg 68%
    21:00 +17°C° 0 mm 0 mps 716 mmHg 67%
    22:00 +17°C° 0 mm 0 mps 716 mmHg 67%
    23:00 +17°C° 0 mm 0 mps 716 mmHg 66%

    8 April, Wednesday

    Time Temperature Precipitation Wind Pressure Humidity
    00:00 +17°C° 0 mm 0 mps 715 mmHg 66%
    01:00 +17°C° 0 mm 0 mps 715 mmHg 65%
    02:00 +16°C° 0 mm 0 mps 715 mmHg 65%
    03:00 +16°C° 0 mm 0 mps 715 mmHg 64%
    04:00 +16°C° 0 mm 0 mps 715 mmHg 64%
    05:00 +18°C° 0 mm 0 mps 716 mmHg 56%
    06:00 +20°C° 0 mm 0 mps 716 mmHg 49%
    07:00 +22°C° 0 mm 0 mps 717 mmHg 41%
    08:00 +26°C° 0 mm 1 mps 717 mmHg 37%
    09:00 +28°C° 0 mm 2 mps 718 mmHg 32%
    10:00 +30°C° 0 mm 3 mps 718 mmHg 28%
    11:00 +30°C° 0 mm 3 mps 718 mmHg 29%
    12:00 +31°C° 0 mm 3 mps 718 mmHg 29%
    13:00 +32°C° 0 mm 4 mps 718 mmHg 29%
    14:00 +30°C° 0 mm 3 mps 717 mmHg 32%
    15:00 +29°C° 0 mm 3 mps 717 mmHg 35%
    16:00 +28°C° 0 mm 3 mps 717 mmHg 39%
    17:00 +25°C° 0 mm 2 mps 717 mmHg 51%
    18:00 +22°C° 0 mm 1 mps 716 mmHg 63%
    19:00 +17°C° 0 mm 0 mps 716 mmHg 76%
    20:00 +16°C° 0 mm 0 mps 716 mmHg 75%
    21:00 +16°C° 0 mm 0 mps 716 mmHg 75%
    22:00 +16°C° 0 mm 0 mps 716 mmHg 74%
    23:00 +15°C° 0 mm 0 mps 716 mmHg 74%

    9 April, Thursday

    Time Temperature Precipitation Wind Pressure Humidity
    00:00 +15°C° 0 mm 0 mps 716 mmHg 73%
    01:00 +15°C° 0 mm 0 mps 716 mmHg 73%
    02:00 +14°C° 0 mm 0 mps 716 mmHg 73%
    03:00 +14°C° 0 mm 0 mps 716 mmHg 73%
    04:00 +14°C° 0 mm 0 mps 716 mmHg 73%
    05:00 +16°C° 0 mm 0 mps 716 mmHg 66%
    06:00 +18°C° 0 mm 0 mps 717 mmHg 58%
    07:00 +20°C° 0 mm 0 mps 717 mmHg 51%
    08:00 +25°C° 0 mm 1 mps 718 mmHg 45%
    09:00 +27°C° 0 mm 2 mps 718 mmHg 39%
    10:00 +29°C° 0 mm 3 mps 718 mmHg 33%
    11:00 +29°C° 0 mm 3 mps 718 mmHg 33%
    12:00 +29°C° 0 mm 3 mps 718 mmHg 33%
    13:00 +30°C° 0 mm 4 mps 718 mmHg 33%
    14:00 +29°C° 0 mm 3 mps 718 mmHg 37%
    15:00 +27°C° 0 mm 3 mps 718 mmHg 41%
    16:00 +26°C° 0 mm 3 mps 718 mmHg 45%
    17:00 +23°C° 0 mm 2 mps 718 mmHg 57%
    18:00 +20°C° 0 mm 1 mps 718 mmHg 70%
    19:00 +15°C° 0 mm 0 mps 717 mmHg 82%
    20:00 +15°C° 0 mm 0 mps 717 mmHg 80%
    21:00 +15°C° 0 mm 0 mps 717 mmHg 78%
    22:00 +15°C° 0 mm 0 mps 717 mmHg 76%
    23:00 +15°C° 0 mm 0 mps 717 mmHg 76%
    Show more